xpressbillpay.com alexa rank chart, xpressbillpay.com alexa rank daily changes

xpressbillpay.com alexa rank chart, xpressbillpay.com alexa rank daily changes

xpressbillpay.com
Actual rank:
99 285

RANK HISTORY

Date Rank Diff
2017/09/22 99 285 -21
2017/09/20 99 306 +1 577
2017/09/19 97 729 +944
2017/09/18 96 785 +381
2017/09/17 96 404 +1 409
2017/09/16 94 995 -266
2017/09/15 95 261 -1 677
2017/09/14 96 938 -101
2017/09/13 97 039 +2 370
2017/09/12 94 669 +673
2017/09/11 93 996 +270
2017/09/10 93 726 -1 544
2017/09/09 95 270 +1 464
2017/09/08 93 806 +50
2017/09/07 93 756 +474
2017/09/06 93 282 +2 636
2017/09/05 90 646 +1 003
2017/09/04 89 643 +586
2017/09/03 89 057 -1 630
2017/09/02 90 687 -132
2017/09/01 90 819 +335
2017/08/31 90 484 +692
2017/08/30 89 792 +109
2017/08/29 89 683 +224
2017/08/28 89 459 +1 204
2017/08/27 88 255 +40
2017/08/26 88 215 -1 374
2017/08/25 89 589 -262
2017/08/24 89 851 -2 016
2017/08/23 91 867 +2 072
2017/08/22 89 795 +1 590
2017/08/21 88 205 -170
2017/08/20 88 375 -337
2017/08/19 88 712 +344
2017/08/18 88 368 +39
2017/08/17 88 329 -1 651
2017/08/16 89 980 +496
2017/08/15 89 484 +1 089
2017/08/14 88 395 +576
2017/08/13 87 819 -1 315
2017/08/12 89 134 -456
2017/08/11 89 590 -1 152
2017/08/10 90 742 +1 618
2017/08/09 89 124 -331
2017/08/08 89 455 +1 978
2017/08/07 87 477 -836
2017/08/06 88 313 -2 723
2017/08/05 91 036 +397
2017/08/04 90 639 +1 810
2017/08/03 88 829 -1 224
2017/08/02 90 053 +460
2017/08/01 89 593 -85
2017/07/31 89 678 +664
2017/07/30 89 014 -663
2017/07/29 89 677 -422
2017/07/28 90 099 -1 224
2017/07/27 91 323 -1 151
2017/07/26 92 474 +1 915
2017/07/25 90 559 +450
2017/07/24 90 109

WIDGET FOR YOUR SITE

DOMAINS WITH THE NEAREST RANK

Domain Rank
azcc.gov 99 280
gipermall.by 99 281
hcmus.edu.vn 99 282
focusky.com.cn 99 283
tempsite.ws 99 284
xpressbillpay.com 99 285
mheducation.es 99 286
cytaty.pl 99 287
dlink.co.in 99 288
skywow.com 99 289
yeawindows.com 99 290

DOMAINS WITH THE NEAREST RANK BY TLD .com

Domain Rank
boku.com 99 270
swiminn.com 99 271
taohv.com 99 272
studylifestyle.com 99 273
km-produce.com 99 274
xpressbillpay.com 99 285
skywow.com 99 289
yeawindows.com 99 290
ftvhunter.com 99 291
bongthom.com 99 293
wbresearch.com 99 296